Location: Brahman Valley
(40.6513°N, 111.8855°W)
Time: 08:27:58
(UTC+00:00)

Tiros 1 despin weight - Pass Details

Date: 20 May 2021
Orbit: 594 x 641 km, 48.2° (Epoch: 22 June)

Event Time Altitude Azimuth Distance (km) Brightness Sun altitude
Rises 04:45:20 0° 295° (WNW) 2,931 ? -19.0°
Reaches altitude 10° 04:47:49 10° 304° (WNW) 2,027 ? -19.3°
Maximum altitude 04:52:09 36° 11° (NNE) 1,008 ? -19.8°
Enters shadow 04:55:34 15° 73° (ENE) 1,717 ? -20.2°
Drops below altitude 10° 04:56:29 10° 79° (E) 2,030 - -20.3°
Sets 04:58:59 0° 88° (E) 2,937 - -20.6°
